Satellite: NO-44
Catalog number: 26931
Epoch time:      11089.75833557
Element set:    0716
Inclination:      067.0515 deg
RA of node:       185.6122 deg
Eccentricity:    0.0007212
Arg of perigee:   268.6560 deg
Mean anomaly:     091.3716 deg
Mean motion:   14.29644151 rev/day
Decay rate:       1.98e-06 rev/day^2
Epoch rev:           49571
Checksum:              317

Satellite: SO-50
Catalog number: 27607
Epoch time:      11089.78580134
Element set:     427
Inclination:      064.5576 deg
RA of node:       205.9010 deg
Eccentricity:    0.0063948
Arg of perigee:   339.0685 deg
Mean anomaly:     020.7813 deg
Mean motion:   14.71676659 rev/day
Decay rate:       3.60e-06 rev/day^2
Epoch rev:           44455
Checksum:              323

Satellite: CO-55
Catalog number: 27844
Epoch time:      11089.58542434
Element set:      76
Inclination:      098.7080 deg
RA of node:       099.4265 deg
Eccentricity:    0.0010693
Arg of perigee:   066.8430 deg
Mean anomaly:     293.3866 deg
Mean motion:   14.20782871 rev/day
Decay rate:       1.07e-06 rev/day^2
Epoch rev:           40175
Checksum:              327

Satellite: CO-57
Catalog number: 27848
Epoch time:      11089.51671092
Element set:    0025
Inclination:      098.7139 deg
RA of node:       098.5222 deg
Eccentricity:    0.0010559
Arg of perigee:   071.2001 deg
Mean anomaly:     289.0318 deg
Mean motion:   14.20565930 rev/day
Decay rate:        8.1e-07 rev/day^2
Epoch rev:           40169
Checksum:              300

Satellite: AO-51
Catalog number: 28375
Epoch time:      11089.84192361
Element set:    0933
Inclination:      098.0907 deg
RA of node:       072.4365 deg
Eccentricity:    0.0083806
Arg of perigee:   308.5265 deg
Mean anomaly:     050.8427 deg
Mean motion:   14.40738171 rev/day
Decay rate:       1.41e-06 rev/day^2
Epoch rev:           35478
Checksum:              318

Satellite: CP3
Catalog number: 31129
Epoch time:      11089.75326716
Element set:    0833
Inclination:      097.9066 deg
RA of node:       118.4778 deg
Eccentricity:    0.0103402
Arg of perigee:   065.0686 deg
Mean anomaly:     296.1180 deg
Mean motion:   14.52410365 rev/day
Decay rate:       4.48e-06 rev/day^2
Epoch rev:           20945
Checksum:              306

Satellite: CO-65
Catalog number: 32785
Epoch time:      11089.75590865
Element set:    0952
Inclination:      097.8557 deg
RA of node:       155.1265 deg
Eccentricity:    0.0016033
Arg of perigee:   072.6561 deg
Mean anomaly:     287.6419 deg
Mean motion:   14.81885833 rev/day
Decay rate:      1.068e-05 rev/day^2
Epoch rev:           15792
Checksum:              356

Satellite: KKS-1
Catalog number: 33493
Epoch time:      11090.49512070
Element set:     445
Inclination:      098.1136 deg
RA of node:       218.0357 deg
Eccentricity:    0.0018789
Arg of perigee:   293.6984 deg
Mean anomaly:     066.2258 deg
Mean motion:   14.81442156 rev/day
Decay rate:      1.521e-05 rev/day^2
Epoch rev:           11801
Checksum:              297

Satellite: SOHLA-1
Catalog number: 33496
Epoch time:      11089.88703910
Element set:    0382
Inclination:      098.0717 deg
RA of node:       200.5468 deg
Eccentricity:    0.0007020
Arg of perigee:   021.2699 deg
Mean anomaly:     338.8796 deg
Mean motion:   14.69576959 rev/day
Decay rate:       3.71e-06 rev/day^2
Epoch rev:           11698
Checksum:              340

Satellite: TISAT-1
Catalog number: 36799
Epoch time:      11090.54865444
Element set:     721
Inclination:      098.1083 deg
RA of node:       158.0130 deg
Eccentricity:    0.0015697
Arg of perigee:   163.5153 deg
Mean anomaly:     196.6577 deg
Mean motion:   14.80392425 rev/day
Decay rate:       9.26e-06 rev/day^2
Epoch rev:            3882
Checksum:              322

Satellite: STUDSAT
Catalog number: 36801
Epoch time:      11089.94735493
Element set:    0157
Inclination:      098.1106 deg
RA of node:       157.2515 deg
Eccentricity:    0.0014538
Arg of perigee:   154.8314 deg
Mean anomaly:     205.3612 deg
Mean motion:   14.80196068 rev/day
Decay rate:      2.398e-05 rev/day^2
Epoch rev:           03872
Checksum:              304

Satellite: RAX
Catalog number: 37223
Epoch time:      11089.46431449
Element set:    0122
Inclination:      071.9716 deg
RA of node:       212.4675 deg
Eccentricity:    0.0019443
Arg of perigee:   068.5267 deg
Mean anomaly:     291.7923 deg
Mean motion:   14.77296529 rev/day
Decay rate:       6.60e-06 rev/day^2
Epoch rev:           01926
Checksum:              313

Satellite: OOREOS
Catalog number: 37224
Epoch time:      11076.42207246
Element set:    0109
Inclination:      071.9712 deg
RA of node:       241.3960 deg
Eccentricity:    0.0017800
Arg of perigee:   096.5373 deg
Mean anomaly:     263.7815 deg
Mean motion:   14.76929834 rev/day
Decay rate:       8.68e-06 rev/day^2
Epoch rev:           01732
Checksum:              300

Satellite: FAST1
Catalog number: 37227
Epoch time:      11090.48618085
Element set:    0012
Inclination:      071.9703 deg
RA of node:       210.5839 deg
Eccentricity:    0.0015485
Arg of perigee:   064.3066 deg
Mean anomaly:     295.9667 deg
Mean motion:   14.76533600 rev/day
Decay rate:       3.98e-06 rev/day^2
Epoch rev:           00129
Checksum:              299

